Regional Weather Roundup
Issued by NWS New Orleans/Baton Rouge, LA

Home | Current Version | Previous Version | Text Only | Print | Product List | Glossary Off
Versions: 1 2 3 4 5 6 7 8 9 10 11 12 13 14 15 16 17 18 19 20 21 22 23 24 25 26 27 28 29 30 31 32 33 34 35 36 37 38 39 40 41 42 43 44 45 46 47 48 49 50

325
ASUS44 KLIX 260501
RWRLIX
NEW ORLEANS REGIONAL WEATHER ROUNDUP
NATIONAL WEATHER SERVICE NEW ORLEANS LA
1200 AM CDT SAT JUL 26 2014

NOTE: "FAIR" INDICATES FEW OR NO CLOUDS BELOW 12,000 FEET WITH NO
      SIGNIFICANT WEATHER AND/OR OBSTRUCTIONS TO VISIBILITY.
      SKY/WX - SKY CONDITION AND SIGNIFICANT WEATHER.
      TMP - AIR TEMPERATURE.     DP    - DEWPOINT TEMPERATURE.
      RH  - RELATIVE HUMIDITY.   PRES  - PRESSURE.
      HI  - HEAT INDEX.          WCI   - WIND CHILL INDEX.

*  THESE STATIONS ARE NOT NWS OR FAA STATIONS AND ARE NOT UNDER
   NWS QUALITY CONTROL.

LAZ038-040-048-061>063-065>067-069-260600-
SOUTHEAST LOUISIANA

CITY           SKY/WX    TMP DP  RH WIND       PRES   REMARKS
N.O. AUDUBON     N/A     82  76  82 MISG        N/A
N.O. INTL ARPT MOCLDY    80  75  84 SW5       30.03S
N.O. LAKEFRONT MOCLDY    82  75  79 SW9       30.04S
N.O. DOWNTOWN*   N/A     82  72  69 SW5       30.04S
SLIDELL        CLOUDY    80  76  87 CALM      30.03S
BATON ROUGE    MOCLDY    82  74  76 SW10      30.02S
BOOTHVILLE     CLEAR     83  77  82 SW9       30.05R
BELLE CHASSE   PTCLDY    80  75  84 CALM      30.03S
BOGALUSA*        N/A     77  73  86 CALM      30.04S
GALLIANO*      NOT AVBL
NEW ROADS*       N/A     79  75  87 CALM      30.02S
GONZALES*        N/A     78  78 100 CALM      30.03S
HAMMOND*       CLOUDY    81  73  78 E3        30.04S
HOUMA*         PTCLDY    79  73  81 CALM      30.04S
PORT FOURCHON* CLEAR     84  75  74 SW8       30.06F

$$

MSZ070-080>082-260600-
SOUTHERN MISSISSIPPI

CITY           SKY/WX    TMP DP  RH WIND       PRES   REMARKS
MCCOMB         PTCLDY    78  74  87 SE5       30.03F
GULFPORT       CLOUDY    82  75  79 CALM      30.02F
BILOXI         CLOUDY    79  75  89 SW6       30.01F
PASCAGOULA     MOCLDY    78  75  90 S5        30.02F

$$

COASTAL OBSERVATIONS
LAKE AND NEARSHORE STATIONS

STATION/POSITION TIME  TEMP    WIND        PRES    WAVE
                       AIR SEA DIR/SP/G            HT/PER
                 (UTC) (F)     (DEG/KT/KT) (MB)    (FT/S)
PASCAGOULA       0423   78     230/  8/ 11 1017.1
WAVELAND YACHT   0423   82      CALM  /  2 1016.3
GRAND ISLE       0423   83 87  230/  5/  8 1018.1
SOUTHWEST PASS   0423   84 85  250/ 13/ 14 1018.0
NEW CANAL        0423   83 84  230/  4/  6 1017.5
SHELL BEACH      0423   83 82  250/  6/  9 1017.1

OFFSHORE STATIONS

STATION/POSITION TIME  TEMP    WIND        PRES    WAVE
                       AIR SEA DIR/SP/G            HT/PER
                 (UTC) (F)     (DEG/KT/KT) (MB)    (FT/S)
64 S DAUPHIN ISL 0448   84 85  250/ 14/ 16 1017.7

$$




USA.gov is the U.S. government's official web portal to all federal, state and local government web resources and services.